Regional Weather Roundup
Issued by NWS

Home | Current Version | Previous Version | Text Only | Print | Product List | Glossary Off
Versions: 1 2 3 4 5 6 7 8 9 10 11 12 13 14 15 16 17 18 19 20 21 22 23 24 25 26 27 28 29 30 31 32 33 34 35 36 37 38 39 40 41 42 43 44 45 46 47 48 49 50

000
ASUS44 KFWD 010001
RWRTX
NORTH TEXAS HOURLY WEATHER ROUNDUP
NATIONAL WEATHER SERVICE FORT WORTH TX
600 PM CST SAT FEB 28 2015

NOTE: "FAIR" INDICATES FEW OR NO CLOUDS BELOW 12,000 FEET WITH NO
SIGNIFICANT WEATHER AND/OR OBSTRUCTIONS TO VISIBILITY.

TXZ118-119-010100-
DALLAS/FORT WORTH METROPLEX

CITY           SKY/WX    TMP DP  RH WIND       PRES   REMARKS
DFW AIRPORT    FRZ RAIN  31  29  92 N6        30.31R FOG     WCI  25
6HR MIN TEMP:  29; 6HR MAX TEMP:  31; 6HR PCP:  0.05;

DALLAS LOVE    FRZ RAIN  32  29  88 NE3       30.32S FOG
6HR MIN TEMP:  30; 6HR MAX TEMP:  32; 6HR PCP:  0.07;

FTW MEACHAM    CLOUDY    32  29  88 N7        30.31R FOG     WCI  26
6HR MIN TEMP:  30; 6HR MAX TEMP:  32; 6HR PCP:  0.06;

DAL-EXECUTIVE  CLOUDY    31  29  92 NE7       30.30R FOG     WCI  24
6HR MIN TEMP:  30; 6HR MAX TEMP:  31; 6HR PCP:  0.07;

FTW-ALLIANCE   FRZ DRZL  30  28  92 NE7       30.31R FOG     WCI  23
6HR MIN TEMP:  29; 6HR MAX TEMP:  30; 6HR PCP:  0.04;

FTW-SPINKS     DRZL/FOG  30  30 100 N5        30.32S VSB 1   WCI  25
ARLINGTON      CLOUDY    32  28  85 N6        30.31R FOG     WCI  26
6HR MIN TEMP:  31; 6HR MAX TEMP:  33; 6HR PCP:  0.02;

ADDISON        CLOUDY    30  28  93 NE7       30.31F FOG     WCI  23
MESQUITE       CLOUDY    30  30 100 N5        30.32S WCI  25
LANCASTER      CLOUDY    32  29  91 N5        30.32S FOG     WCI  27
6HR MIN TEMP:  30; 6HR MAX TEMP:  32; 6HR PCP:  0.04;

$$

TXZ091>094-102>105-117-120-121-131>134-010100-
NORTH CENTRAL TEXAS

CITY           SKY/WX    TMP DP  RH WIND       PRES   REMARKS
SHRMAN/DENISON MIX PCPN  31  31 100 NE5       30.33S WCI  26
6HR MIN TEMP:  30; 6HR MAX TEMP:  31; 6HR PCP:  0.07;

BRIDGEPORT     DRIZZLE   30  30 100 E3        30.32S
6HR MIN TEMP:  29; 6HR MAX TEMP:  30; 6HR PCP:  0.01;

DECATUR        CLOUDY    29  29  99 NE5       30.29S FOG     WCI  24
6HR MIN TEMP:  28; 6HR MAX TEMP:  29;

DENTON         FRZ RAIN  30  28  92 NE6       30.32R FOG     WCI  24
6HR MIN TEMP:  29; 6HR MAX TEMP:  30; 6HR PCP:  0.03;

MCKINNEY       FRZ RAIN  31  29  92 NE6       30.32R FOG     WCI  25
6HR MIN TEMP:  29; 6HR MAX TEMP:  31; 6HR PCP:  0.07;

TERRELL        CLOUDY    34  31  88 N8        30.31S FOG     WCI  27
6HR MIN TEMP:  33; 6HR MAX TEMP:  35; 6HR PCP:  0.04;

WAXAHACHIE     CLOUDY    31  31 100 N5        30.31S FOG     WCI  27
6HR MIN TEMP:  30; 6HR MAX TEMP:  32; 6HR PCP:  0.01;

GRANBURY       MIX PCPN  32  31  94 N3        30.31S
6HR MIN TEMP:  31; 6HR MAX TEMP:  32;

$$

TXZ083>090-098>101-113>116-127>130-139>142-154-155-010100-
WESTERN NORTH TEXAS

CITY           SKY/WX    TMP DP  RH WIND       PRES   REMARKS
WICHITA FALLS  CLOUDY    28  26  92 E3        30.29R FOG
6HR MIN TEMP:  25; 6HR MAX TEMP:  28; 6HR PCP:  0.01;

WF-KICKAPOO    CLOUDY    30  29  96 CALM      30.30S FOG
6HR MIN TEMP:  27; 6HR MAX TEMP:  30;

VERNON         CLOUDY    27  23  84 NE3       30.29S
ABILENE        CLOUDY    28  26  92 SE7       30.22S WCI  21
6HR MIN TEMP:  25; 6HR MAX TEMP:  28;

ABILENE-DYESS  CLOUDY    28  27  95 CALM      30.20F FOG
6HR MIN TEMP:  23; 6HR MAX TEMP:  28;

GRAHAM         CLOUDY    30  29  97 CALM      30.27S FOG
6HR MIN TEMP:  28; 6HR MAX TEMP:  31;

MINERAL WELLS    N/A    N/A N/A N/A MISG      30.28R
STEPHENVILLE   CLOUDY    30  28  93 CALM      30.28S
6HR MIN TEMP:  29; 6HR MAX TEMP:  30;

COMANCHE       CLOUDY    30  30 100 MISG      30.25S FOG
6HR MIN TEMP:  28; 6HR MAX TEMP:  31;

$$

TXZ143>147-156>162-174-175-010100-
CENTRAL TEXAS

CITY           SKY/WX    TMP DP  RH WIND       PRES   REMARKS
WACO           CLOUDY    33  32  96 N10       30.30R FOG     WCI  25
6HR MIN TEMP:  31; 6HR MAX TEMP:  34; 6HR PCP: TRACE;

WACO-MCGREGOR    N/A     34  28  80 CALM      30.30S
6HR MIN TEMP:  30; 6HR MAX TEMP:  34; 6HR PCP:  0.02;

CORSICANA      LGT RAIN  35  32  88 N9        30.30R FOG     WCI  28
6HR MIN TEMP:  34; 6HR MAX TEMP:  37; 6HR PCP:  0.02;

HEARNE         CLOUDY    43  37  78 N7        30.26F WCI  39
6HR MIN TEMP:  41; 6HR MAX TEMP:  45;

TEMPLE         CLOUDY    34  28  80 N9        30.26S WCI  26
6HR MIN TEMP:  32; 6HR MAX TEMP:  34;

KILLEEN        NOT AVBL
KILLEEN-SKYLRK CLOUDY    34  27  75 CALM      30.25S
6HR MIN TEMP:  30; 6HR MAX TEMP:  34; 6HR PCP:  0.05;

FORT HOOD      FOG       32  32  99 N8        30.26R VSB 1   WCI  25
6HR MIN TEMP:  30; 6HR MAX TEMP:  32; 6HR PCP:  0.01;

HAMILTON       CLOUDY    32  32 100 NE6       30.26S FOG     WCI  26
6HR MIN TEMP:  30; 6HR MAX TEMP:  32;

LAMPASAS       CLOUDY    32  31  96 NE5       30.24S FOG     WCI  27
6HR MIN TEMP:  30; 6HR MAX TEMP:  32;

$$

TXZ095>097-106>112-122>126-135>138-148>153-164>167-010100-
EAST TEXAS

CITY           SKY/WX    TMP DP  RH WIND       PRES   REMARKS
PARIS          CLOUDY    30  27  86 CALM      30.34R
6HR MIN TEMP:  30; 6HR MAX TEMP:  30; 6HR PCP:  0.14;

SULPHUR SPRNGS CLOUDY    33  32  96 NE5       30.35R FOG     WCI  28
6HR MIN TEMP:  32; 6HR MAX TEMP:  33; 6HR PCP:  0.01;

GILMER         CLOUDY    38  28  67 N3        30.31R
6HR MIN TEMP:  33; 6HR MAX TEMP:  38;

MINEOLA        CLOUDY    36  32  87 CALM      30.32S HAZE
TYLER          LGT RAIN  40  28  62 NE7       30.27F WCI  35
6HR MIN TEMP:  37; 6HR MAX TEMP:  41; 6HR PCP: TRACE;

LONGVIEW       CLOUDY    44  31  60 N3        30.28R
6HR MIN TEMP:  37; 6HR MAX TEMP:  45;

ATHENS         RAIN      36  32  87 N6        30.28S WCI  31
PALESTINE      LGT RAIN  44  37  76 CALM      30.28S
JACKSONVILLE   CLOUDY    46  36  68 CALM      30.28R
NACOGDOCHES    MOCLDY    48  36  61 E5        30.27R
6HR MIN TEMP:  45; 6HR MAX TEMP:  50;

LUFKIN         CLOUDY    52  36  54 E5        30.25R
6HR MIN TEMP:  46; 6HR MAX TEMP:  54; 6HR PCP: TRACE;

$$

SUPPLEMENTAL OBSERVATIONS (CENTRAL)

CITY           SKY/WX    TMP DP  RH WIND       PRES   REMARKS
$$

SUPPLEMENTAL OBSERVATIONS (WEST)

CITY           SKY/WX    TMP DP  RH WIND       PRES   REMARKS
$$

SUPPLEMENTAL OBSERVATIONS (EAST)

CITY           SKY/WX    TMP DP  RH WIND       PRES   REMARKS
$$

SUPPLEMENTAL OBSERVATIONS ARE A COLLECTION OF AUTOMATED INSTRUMENTS
THAT ARE MAINTAINED BY A VARIETY OF FEDERAL AND STATE AGENCIES.
CERTAIN ELEMENTS...SUCH AS HUMIDITY VALUES AND SUSTAINED WIND
SPEEDS...MAY BE APPROXIMATED.




USA.gov is the U.S. government's official web portal to all federal, state and local government web resources and services.